�������l�o���
Date,Time,MP-1(��Sv/h),MP-2(��Sv/h),MP-3(��Sv/h),MP-4(��Sv/h),MP-5(��Sv/h),MP-6(��Sv/h),MP-7(��Sv/h),MP-8(��Sv/h),����,����(m/s),���J
2021/06/18,00:00,0.642,0.957,0.602,1.169,0.838,0.376,0.656,0.612,�k�k��,3.2,��
2021/06/18,00:10,0.643,0.958,0.601,1.172,0.839,0.378,0.657,0.613,�k�k��,3.3,��
2021/06/18,00:20,0.643,0.957,0.602,1.169,0.836,0.377,0.654,0.611,�k�k��,2.6,��
2021/06/18,00:30,0.642,0.959,0.602,1.170,0.839,0.376,0.657,0.613,�k�k��,2.3,��
2021/06/18,00:40,0.641,0.956,0.601,1.171,0.840,0.376,0.654,0.614,�k��,3.0,��
2021/06/18,00:50,0.642,0.956,0.601,1.169,0.840,0.376,0.658,0.612,�k�k��,3.2,��
2021/06/18,01:00,0.644,0.956,0.601,1.168,0.839,0.377,0.658,0.613,�k�k��,3.2,��
2021/06/18,01:10,0.641,0.958,0.602,1.168,0.836,0.377,0.658,0.614,�k�k��,3.5,��
2021/06/18,01:20,0.646,0.955,0.600,1.168,0.838,0.376,0.656,0.613,�k�k��,2.8,��
2021/06/18,01:30,0.643,0.956,0.602,1.170,0.838,0.377,0.657,0.613,�k�k��,2.6,��
2021/06/18,01:40,0.644,0.957,0.601,1.167,0.836,0.376,0.658,0.612,�k��,3.6,��
2021/06/18,01:50,0.644,0.959,0.602,1.168,0.839,0.377,0.658,0.614,�k��,3.6,��
2021/06/18,02:00,0.644,0.957,0.601,1.171,0.841,0.378,0.657,0.614,�k��,3.1,��
2021/06/18,02:10,0.643,0.957,0.602,1.170,0.839,0.378,0.659,0.613,�k�k��,3.6,�L
2021/06/18,02:20,0.642,0.958,0.602,1.170,0.838,0.378,0.658,0.612,�k��,3.2,�L
2021/06/18,02:30,0.644,0.958,0.601,1.169,0.839,0.377,0.659,0.613,�k�k��,3.4,�L
2021/06/18,02:40,0.643,0.958,0.602,1.169,0.839,0.379,0.659,0.613,�k,2.8,�L
2021/06/18,02:50,0.643,0.957,0.603,1.169,0.841,0.377,0.658,0.614,�k,2.6,��
2021/06/18,03:00,0.644,0.955,0.603,1.168,0.838,0.376,0.659,0.612,�k�k��,2.3,��
2021/06/18,03:10,0.643,0.957,0.602,1.170,0.839,0.378,0.657,0.612,�k�k��,3.1,��
2021/06/18,03:20,0.643,0.955,0.600,1.171,0.839,0.378,0.656,0.612,�k,3.4,��
2021/06/18,03:30,0.645,0.955,0.602,1.168,0.836,0.377,0.657,0.613,�k,3.3,��
2021/06/18,03:40,0.643,0.958,0.602,1.170,0.841,0.376,0.657,0.613,�k�k��,3.7,��
2021/06/18,03:50,0.642,0.957,0.601,1.168,0.839,0.377,0.656,0.612,�k�k��,4.0,��
2021/06/18,04:00,0.642,0.955,0.602,1.171,0.839,0.378,0.657,0.612,�k,3.9,��
2021/06/18,04:10,0.643,0.956,0.600,1.171,0.839,0.377,0.658,0.613,�k,4.4,��
2021/06/18,04:20,0.642,0.956,0.602,1.167,0.838,0.378,0.658,0.611,�k,3.9,��
2021/06/18,04:30,0.641,0.956,0.600,1.169,0.838,0.377,0.658,0.613,�k�k��,3.9,��
2021/06/18,04:40,0.642,0.956,0.599,1.167,0.838,0.376,0.658,0.612,�k,4.6,��
2021/06/18,04:50,0.642,0.953,0.599,1.168,0.835,0.377,0.659,0.612,�k�k��,3.4,��
2021/06/18,05:00,0.642,0.953,0.600,1.169,0.839,0.377,0.658,0.611,�k�k��,3.2,��
2021/06/18,05:10,0.641,0.956,0.601,1.169,0.838,0.377,0.657,0.612,�k��,3.8,��
2021/06/18,05:20,0.642,0.956,0.602,1.171,0.840,0.377,0.657,0.613,�k��,3.2,��
2021/06/18,05:30,0.641,0.955,0.602,1.170,0.838,0.376,0.659,0.614,�k��,3.3,��
2021/06/18,05:40,0.643,0.956,0.601,1.169,0.837,0.377,0.658,0.612,�k�k��,2.6,��
2021/06/18,05:50,0.644,0.955,0.601,1.168,0.840,0.377,0.659,0.613,�k��,2.2,��
2021/06/18,06:00,0.643,0.957,0.601,1.170,0.838,0.376,0.660,0.612,���k��,2.0,��
2021/06/18,06:10,0.642,0.958,0.601,1.170,0.839,0.378,0.658,0.614,�k��,1.4,��
2021/06/18,06:20,0.643,0.954,0.599,1.169,0.837,0.377,0.658,0.613,�k�k��,1.9,��
2021/06/18,06:30,0.642,0.952,0.601,1.171,0.841,0.377,0.659,0.612,�k��,1.5,��
2021/06/18,06:40,0.643,0.954,0.601,1.170,0.839,0.375,0.658,0.613,�k��,1.7,��
2021/06/18,06:50,0.641,0.954,0.599,1.169,0.838,0.374,0.658,0.613,��,2.0,��
2021/06/18,07:00,0.643,0.955,0.600,1.171,0.840,0.376,0.657,0.614,��,1.7,��
2021/06/18,07:10,0.641,0.953,0.601,1.172,0.838,0.375,0.658,0.615,��,1.2,��
2021/06/18,07:20,0.642,0.952,0.601,1.170,0.839,0.375,0.657,0.611,-,CALM,��
2021/06/18,07:30,0.642,0.954,0.600,1.170,0.836,0.376,0.659,0.610,�k�k��,1.2,��
2021/06/18,07:40,0.643,0.955,0.601,1.171,0.837,0.373,0.657,0.612,�k�k��,0.9,��
2021/06/18,07:50,0.641,0.952,0.601,1.169,0.840,0.375,0.656,0.611,�k,1.5,��
2021/06/18,08:00,0.642,0.952,0.601,1.172,0.838,0.375,0.658,0.610,���k��,2.0,��
2021/06/18,08:10,0.643,0.954,0.600,1.171,0.838,0.375,0.657,0.612,�k��,2.0,��
2021/06/18,08:20,0.642,0.952,0.600,1.169,0.841,0.374,0.656,0.612,���k��,2.5,��
2021/06/18,08:30,0.643,0.953,0.601,1.171,0.838,0.375,0.657,0.611,���k��,2.9,��
2021/06/18,08:40,0.643,0.951,0.601,1.172,0.839,0.374,0.658,0.612,���k��,3.1,��
2021/06/18,08:50,0.644,0.954,0.601,1.171,0.839,0.375,0.658,0.612,���k��,3.4,��
2021/06/18,09:00,0.643,0.952,0.601,1.170,0.839,0.377,0.658,0.611,���k��,2.8,��
2021/06/18,09:10,0.642,0.955,0.599,1.169,0.839,0.376,0.658,0.612,���k��,3.7,��
2021/06/18,09:20,0.643,0.952,0.601,1.170,0.839,0.375,0.656,0.611,��,3.3,��
2021/06/18,09:30,0.645,0.952,0.599,1.169,0.838,0.374,0.656,0.612,��,3.0,��
2021/06/18,09:40,0.644,0.953,0.600,1.172,0.838,0.376,0.657,0.611,��,3.1,��
2021/06/18,09:50,0.643,0.952,0.601,1.172,0.837,0.375,0.657,0.611,��,3.5,��
2021/06/18,10:00,0.643,0.955,0.598,1.173,0.838,0.376,0.658,0.612,��,3.5,��
2021/06/18,10:10,0.644,0.955,0.601,1.171,0.836,0.375,0.658,0.611,��,3.5,��
2021/06/18,10:20,0.644,0.952,0.601,1.171,0.837,0.375,0.657,0.610,��,4.2,��
2021/06/18,10:30,0.644,0.955,0.602,1.172,0.839,0.377,0.657,0.612,��,3.1,��
2021/06/18,10:40,0.646,0.953,0.599,1.171,0.839,0.376,0.658,0.611,��,3.1,��
2021/06/18,10:50,0.643,0.952,0.599,1.170,0.839,0.376,0.656,0.612,��,3.1,��
2021/06/18,11:00,0.645,0.954,0.601,1.171,0.841,0.376,0.657,0.611,��,3.1,��
2021/06/18,11:10,0.644,0.957,0.601,1.169,0.840,0.377,0.659,0.611,���k��,2.8,��
2021/06/18,11:20,0.644,0.957,0.601,1.167,0.840,0.375,0.657,0.611,���k��,3.3,��
2021/06/18,11:30,0.646,0.955,0.602,1.167,0.840,0.376,0.658,0.612,��,3.1,��
2021/06/18,11:40,0.646,0.954,0.601,1.167,0.841,0.376,0.659,0.612,��,3.3,��
2021/06/18,11:50,0.642,0.957,0.602,1.169,0.840,0.375,0.657,0.612,��,3.6,��
2021/06/18,12:00,0.644,0.955,0.599,1.166,0.837,0.376,0.657,0.611,���쓌,3.2,��
2021/06/18,12:10,0.643,0.955,0.601,1.170,0.841,0.376,0.657,0.611,���쓌,3.9,��
2021/06/18,12:20,0.643,0.956,0.602,1.168,0.839,0.377,0.658,0.612,���쓌,3.8,��
2021/06/18,12:30,0.646,0.958,0.600,1.170,0.840,0.377,0.657,0.611,��,2.8,��
2021/06/18,12:40,0.645,0.958,0.602,1.167,0.841,0.377,0.658,0.611,��,3.2,��
2021/06/18,12:50,0.644,0.954,0.602,1.169,0.841,0.377,0.657,0.611,���쓌,3.2,��
2021/06/18,13:00,0.644,0.958,0.601,1.169,0.841,0.376,0.658,0.611,�쓌,3.5,��
2021/06/18,13:10,0.644,0.955,0.599,1.168,0.840,0.376,0.657,0.612,���쓌,3.1,��
2021/06/18,13:20,0.645,0.953,0.602,1.169,0.840,0.377,0.657,0.611,���쓌,2.9,��
2021/06/18,13:30,0.645,0.956,0.602,1.171,0.841,0.377,0.658,0.611,���쓌,2.9,��
2021/06/18,13:40,0.645,0.954,0.601,1.169,0.840,0.377,0.657,0.611,���쓌,3.3,��
2021/06/18,13:50,0.645,0.955,0.602,1.169,0.842,0.377,0.656,0.613,�쓌,3.3,��
2021/06/18,14:00,0.644,0.954,0.602,1.168,0.842,0.376,0.657,0.612,�쓌,3.7,��
2021/06/18,14:10,0.646,0.955,0.601,1.170,0.839,0.377,0.659,0.612,���쓌,3.0,��
2021/06/18,14:20,0.645,0.955,0.601,1.169,0.840,0.376,0.657,0.611,�쓌,3.6,��
2021/06/18,14:30,0.645,0.956,0.601,1.169,0.840,0.376,0.657,0.609,���쓌,3.0,��
2021/06/18,14:40,0.644,0.956,0.603,1.169,0.840,0.377,0.658,0.611,���쓌,2.6,��
2021/06/18,14:50,0.644,0.955,0.603,1.168,0.840,0.376,0.657,0.611,�쓌,3.7,��
2021/06/18,15:00,0.643,0.955,0.601,1.169,0.840,0.377,0.657,0.612,���쓌,2.6,��
2021/06/18,15:10,0.644,0.958,0.602,1.168,0.841,0.377,0.657,0.611,���쓌,2.5,��
2021/06/18,15:20,0.644,0.956,0.600,1.171,0.841,0.377,0.658,0.610,���쓌,2.8,��
2021/06/18,15:30,0.643,0.957,0.602,1.171,0.839,0.377,0.656,0.609,�쓌,2.8,��
2021/06/18,15:40,0.645,0.958,0.602,1.170,0.840,0.375,0.658,0.610,��쓌,3.3,��
2021/06/18,15:50,0.645,0.956,0.601,1.170,0.842,0.376,0.657,0.611,�쓌,2.6,��
2021/06/18,16:00,0.644,0.957,0.600,1.172,0.839,0.375,0.657,0.612,��쓌,3.3,��
2021/06/18,16:10,0.645,0.956,0.603,1.171,0.841,0.376,0.658,0.611,�쓌,3.4,��
2021/06/18,16:20,0.644,0.959,0.601,1.171,0.840,0.377,0.660,0.611,�쓌,3.1,��
2021/06/18,16:30,0.645,0.957,0.601,1.172,0.838,0.375,0.656,0.611,�쓌,1.7,��
2021/06/18,16:40,0.645,0.958,0.601,1.170,0.839,0.376,0.657,0.610,�쓌,3.0,��
2021/06/18,16:50,0.642,0.956,0.601,1.171,0.839,0.377,0.656,0.611,�쓌,3.4,��
2021/06/18,17:00,0.645,0.958,0.599,1.173,0.841,0.377,0.657,0.611,�쓌,2.8,��
2021/06/18,17:10,0.645,0.956,0.601,1.172,0.840,0.377,0.657,0.610,��쓌,4.0,��
2021/06/18,17:20,0.644,0.958,0.602,1.171,0.838,0.377,0.657,0.612,��쓌,4.0,��
2021/06/18,17:30,0.643,0.957,0.600,1.172,0.839,0.376,0.656,0.612,��쓌,4.4,��
2021/06/18,17:40,0.647,0.958,0.602,1.173,0.840,0.375,0.657,0.612,��쓌,4.4,��
2021/06/18,17:50,0.642,0.957,0.602,1.171,0.838,0.377,0.658,0.612,��쓌,5.1,��
2021/06/18,18:00,0.644,0.958,0.604,1.173,0.838,0.376,0.658,0.612,��쓌,4.7,��
2021/06/18,18:10,0.645,0.956,0.603,1.173,0.840,0.376,0.657,0.610,��쓌,4.6,��
2021/06/18,18:20,0.646,0.956,0.604,1.173,0.840,0.377,0.657,0.611,��,4.4,��
2021/06/18,18:30,0.645,0.957,0.604,1.173,0.841,0.375,0.659,0.612,��,3.9,��
2021/06/18,18:40,0.645,0.956,0.603,1.173,0.841,0.375,0.659,0.612,��쓌,3.7,��
2021/06/18,18:50,0.644,0.958,0.602,1.175,0.840,0.376,0.658,0.614,��쓌,3.7,��
2021/06/18,19:00,0.642,0.957,0.604,1.173,0.840,0.374,0.658,0.614,��,4.0,��
2021/06/18,19:10,0.643,0.961,0.603,1.174,0.837,0.376,0.658,0.615,��,3.9,��
2021/06/18,19:20,0.643,0.958,0.604,1.173,0.840,0.375,0.659,0.614,��,4.2,��
2021/06/18,19:30,0.642,0.959,0.603,1.175,0.840,0.376,0.657,0.614,��,4.7,��
2021/06/18,19:40,0.642,0.960,0.604,1.175,0.841,0.374,0.658,0.613,��,5.0,��
2021/06/18,19:50,0.645,0.961,0.605,1.174,0.840,0.376,0.659,0.613,��쓌,3.5,��
2021/06/18,20:00,0.644,0.957,0.605,1.172,0.840,0.375,0.658,0.614,��,5.2,��
2021/06/18,20:10,0.642,0.962,0.605,1.172,0.840,0.376,0.659,0.613,��,4.1,��
2021/06/18,20:20,0.644,0.962,0.605,1.175,0.840,0.376,0.658,0.614,��,3.9,��
2021/06/18,20:30,0.642,0.962,0.604,1.173,0.841,0.378,0.659,0.614,��,3.6,��
2021/06/18,20:40,0.645,0.961,0.604,1.175,0.842,0.377,0.658,0.614,��,3.9,��
2021/06/18,20:50,0.644,0.960,0.603,1.176,0.842,0.377,0.660,0.613,��,3.8,��
2021/06/18,21:00,0.644,0.963,0.604,1.173,0.843,0.379,0.659,0.614,��,4.4,��
2021/06/18,21:10,0.643,0.962,0.604,1.170,0.841,0.378,0.658,0.614,��,4.4,��
2021/06/18,21:20,0.644,0.962,0.604,1.170,0.841,0.376,0.658,0.613,��,4.3,��
2021/06/18,21:30,0.643,0.962,0.604,1.173,0.840,0.377,0.659,0.613,��,3.5,��
2021/06/18,21:40,0.643,0.962,0.603,1.175,0.842,0.375,0.660,0.613,��,3.3,��
2021/06/18,21:50,0.645,0.962,0.602,1.174,0.842,0.378,0.659,0.614,��,3.9,��
2021/06/18,22:00,0.644,0.962,0.604,1.174,0.841,0.377,0.659,0.613,��,4.5,��
2021/06/18,22:10,0.644,0.963,0.604,1.173,0.843,0.376,0.659,0.614,��,4.2,��
2021/06/18,22:20,0.643,0.963,0.604,1.175,0.841,0.377,0.658,0.613,��,3.6,��
2021/06/18,22:30,0.646,0.961,0.604,1.173,0.843,0.375,0.658,0.613,��,3.4,��
2021/06/18,22:40,0.645,0.963,0.603,1.176,0.844,0.376,0.660,0.612,��,3.1,��
2021/06/18,22:50,0.646,0.962,0.603,1.173,0.841,0.378,0.660,0.614,��,3.1,��
2021/06/18,23:00,0.644,0.962,0.602,1.174,0.842,0.376,0.658,0.613,��,3.1,��
2021/06/18,23:10,0.645,0.963,0.604,1.173,0.844,0.379,0.659,0.613,��,3.0,��
2021/06/18,23:20,0.643,0.961,0.604,1.174,0.843,0.377,0.660,0.613,��,3.0,��
2021/06/18,23:30,0.646,0.963,0.604,1.172,0.842,0.378,0.658,0.613,��,3.1,��
2021/06/18,23:40,0.645,0.961,0.603,1.171,0.840,0.379,0.657,0.613,��쓌,2.6,��
2021/06/18,23:50,0.645,0.961,0.602,1.172,0.844,0.376,0.660,0.614,��,2.3,��
